Total_Precipitation_Accumulation
0.00 0.00 0.00 0.00 0.00 0.00 0.00 0.00 0.00 0.00 0.00 0.00 0.00 0.00 0.01 0.03 0.10 0.11 0.08 0.12 0.12 0.07
0.00 0.00 0.00 0.00 0.00 0.00 0.00 0.00 0.00 0.00 0.00 0.00 0.00 0.00 0.01 0.01 0.03 0.07 0.05 0.07 0.14 0.09
0.00 0.00 0.00 0.00 0.00 0.00 0.00 0.00 0.00 0.00 0.00 0.00 0.00 0.00 0.00 0.02 0.04 0.05 0.06 0.07 0.12 0.15
0.00 0.00 0.00 0.00 0.00 0.01 0.00 0.00 0.00 0.00 0.00 0.00 0.00 0.00 0.00 0.00 0.01 0.03 0.06 0.06 0.04 0.04
0.00 0.00 0.00 0.01 0.00 0.00 0.01 0.00 0.01 0.01 0.01 0.01 0.01 0.00 0.01 0.01 0.02 0.03 0.03 0.05 0.08 0.03
0.01 0.01 0.01 0.01 0.01 0.01 0.01 0.01 0.01 0.00 0.01 0.01 0.01 0.01 0.01 0.02 0.03 0.08 0.08 0.07 0.07 0.05
0.02 0.03 0.03 0.02 0.02 0.01 0.01 0.00 0.00 0.01 0.01 0.01 0.02 0.02 0.02 0.05 0.07 0.11 0.16 0.17 0.11 0.14
0.07 0.08 0.08 0.09 0.09 0.08 0.05 0.03 0.03 0.03 0.04 0.04 0.03 0.06 0.06 0.12 0.12 0.14 0.31 0.40 0.33 0.28
0.13 0.21 0.25 0.25 0.23 0.16 0.09 0.12 0.13 0.14 0.12 0.12 0.15 0.19 0.17 0.22 0.27 0.29 0.30 0.33 0.26 0.24
0.21 0.21 0.23 0.22 0.15 0.14 0.18 0.18 0.21 0.33 0.44 0.42 0.60 0.55 0.50 0.46 0.71 0.73 0.63 0.49 0.53 0.36
0.16 0.20 0.21 0.16 0.16 0.22 0.29 0.25 0.28 0.36 0.58 0.46 0.72 1.13 0.93 0.78 0.90 0.92 0.88 1.04 0.80 0.71
0.09 0.11 0.11 0.13 0.15 0.19 0.20 0.20 0.26 0.30 0.31 0.45 0.69 0.61 0.69 0.81 0.78 0.81 0.70 0.73 0.80 0.78
0.00 0.01 0.02 0.03 0.05 0.06 0.08 0.11 0.10 0.12 0.17 0.21 0.42 0.39 0.32 0.46 0.80 0.82 0.87 0.68 0.59 0.67
0.00 0.00 0.00 0.00 0.00 0.00 0.00 0.00 0.00 0.00 0.01 0.02 0.08 0.14 0.14 0.13 0.26 0.53 0.56 0.65 0.78 1.02